Weather History for Anchorage, AK

Change the Weather History Date:

Tuesday, November 6, 2012

  Actual Average Record
Temperature  
Mean Temperature 18 °F 24 °F  
Max Temperature 25 °F 30 °F 49 °F (1979)
Min Temperature 11 °F 19 °F -8 °F (1956)
Degree Days  
Heating Degree Days 47    
Month to date heating degree days 247  
Since 1 July heating degree days 2290  
Cooling Degree Days 0    
Month to date cooling degree days 0  
Year to date cooling degree days 0  
Moisture  
Dew Point 3 °F    
Average Humidity 51    
Maximum Humidity 64    
Minimum Humidity 37    
Precipitation  
Precipitation T in 0.04 in 0.49 in (2011)
Month to date precipitation T 0.24  
Year to date precipitation 19.42 14.55  
Snow  
Snow T in 0.40 in 6.10 in (2011)
Month to date snowfall T 2.1  
Since 1 June snowfall 3.4  
Since 1 July snowfall 3.4 10.4  
Since 1 September snowfall 10.4  
Snow Depth 0.00 in    
Sea Level Pressure  
Sea Level Pressure 29.98 in    
Wind  
Wind Speed 8 mph (North)    
Max Wind Speed 16 mph    
Max Gust Speed 24 mph    
Visibility 10 miles    
Events Snow    
T = Trace of Precipitation, MM = Missing Value Source: NWS Daily Summary

Daily Weather History Graph

Daily Weather History Graph

Search for Another Location

Airport:

Trip Planner

Search our weather history database for the weather conditions in past years. The results will help you decide how hot, cold, wet, or windy it might be!

Date:

Astronomy

Nov. 06, 2012 Rise Set
Actual Time 8:43 AM AKST 4:43 PM AKST
Civil Twilight 7:54 AM AKST 5:32 PM AKST
Nautical Twilight 7:02 AM AKST 6:24 PM AKST
Astronomical Twilight 6:11 AM AKST 7:14 PM AKST
Moon 11:58 PM AKST (11/6) 2:21 PM AKST (11/6)
Length of Visible Light 9h 37m
Length of Day
8h 00m
Waning Gibbous, 51% of the Moon is Illuminated
Nov 6
Waning Gibbous
Nov 6
Last Quarter
Nov 13
New
Nov 20
First Quarter
Nov 28
Full

Hourly Weather History & Observations

Time (AKST) Temp. Windchill Dew Point Humidity Pressure Visibility Wind Dir Wind Speed Gust Speed Precip Events Conditions
12:53 AM 23.0 °F 10.1 °F 3.0 °F 42% 29.80 in 10.0 mi North 15.0 mph - N/A   Overcast
1:12 AM 21.2 °F 10.9 °F 3.2 °F 46% 29.79 in 10.0 mi North 9.2 mph - N/A   Overcast
1:53 AM 21.9 °F 11.7 °F 3.0 °F 44% 29.82 in 10.0 mi North 9.2 mph - 0.00 in Snow Light Snow
2:26 AM 21.2 °F 9.5 °F 1.4 °F 42% 29.81 in 10.0 mi North 11.5 mph - 0.00 in Snow Light Snow
3:53 AM 21.9 °F 10.4 °F 3.0 °F 44% 29.84 in 10.0 mi North 11.5 mph 18.4 mph 0.00 in   Overcast
4:53 AM 21.9 °F 11.0 °F 3.0 °F 44% 29.86 in 10.0 mi North 10.4 mph - N/A   Scattered Clouds
5:53 AM 21.9 °F 10.4 °F 1.9 °F 42% 29.88 in 10.0 mi North 11.5 mph - N/A   Mostly Cloudy
6:53 AM 21.9 °F 10.4 °F 3.0 °F 44% 29.89 in 10.0 mi North 11.5 mph - N/A   Mostly Cloudy
7:53 AM 21.9 °F 10.4 °F 3.0 °F 44% 29.91 in 10.0 mi North 11.5 mph 20.7 mph N/A   Mostly Cloudy
8:53 AM 21.9 °F 9.8 °F 3.0 °F 44% 29.93 in 10.0 mi North 12.7 mph - N/A   Mostly Cloudy
9:53 AM 21.0 °F 9.9 °F 3.0 °F 46% 29.95 in 10.0 mi North 10.4 mph - N/A   Scattered Clouds
10:53 AM 23.0 °F 10.6 °F 3.0 °F 42% 29.97 in 10.0 mi North 13.8 mph - N/A   Mostly Cloudy
11:53 AM 24.1 °F 13.7 °F 3.0 °F 40% 29.99 in 10.0 mi North 10.4 mph - N/A   Mostly Cloudy
12:53 PM 24.1 °F 17.0 °F 3.0 °F 40% 30.01 in 10.0 mi North 5.8 mph - N/A   Scattered Clouds
1:53 PM 27.0 °F 19.5 °F 3.9 °F 37% 30.01 in 10.0 mi NNE 6.9 mph - N/A   Scattered Clouds
2:53 PM 27.0 °F 21.6 °F 3.9 °F 37% 30.02 in 10.0 mi Variable 4.6 mph - N/A   Scattered Clouds
3:53 PM 26.1 °F 20.5 °F 3.9 °F 39% 30.03 in 10.0 mi North 4.6 mph - N/A   Scattered Clouds
4:53 PM 23.0 °F - 3.0 °F 42% 30.05 in 10.0 mi Calm Calm - N/A   Scattered Clouds
5:53 PM 18.0 °F 11.1 °F 3.9 °F 54% 30.06 in 10.0 mi South 4.6 mph - N/A   Scattered Clouds
6:53 PM 15.1 °F - 5.0 °F 64% 30.08 in 10.0 mi Calm Calm - N/A   Clear
7:53 PM 14.0 °F - 3.9 °F 64% 30.11 in 10.0 mi Calm Calm - N/A   Clear
8:53 PM 21.0 °F 16.2 °F 1.0 °F 42% 30.12 in 10.0 mi NNW 3.5 mph - N/A   Clear
9:53 PM 21.0 °F 14.6 °F 1.0 °F 42% 30.13 in 10.0 mi North 4.6 mph - N/A   Clear
10:53 PM 19.9 °F 13.4 °F 1.9 °F 46% 30.15 in 10.0 mi NNE 4.6 mph - N/A   Clear
11:53 PM 16.0 °F - 3.9 °F 59% 30.17 in 10.0 mi Calm Calm - N/A   Clear